Regional Weather Roundup
Issued by NWS

Home | Current Version | Previous Version | Text Only | Print | Product List | Glossary Off
Versions: 1 2 3 4 5 6 7 8 9 10 11 12 13 14 15 16 17 18 19 20 21 22 23 24 25 26 27 28 29 30 31 32 33 34 35 36 37 38 39 40 41 42 43 44 45 46 47 48 49 50

000
ASUS45 KCYS 172010
RWRWY

WYOMING REGIONAL WEATHER ROUNDUP
NATIONAL WEATHER SERVICE CHEYENNE WY
100 PM MST SAT FEB 17 2018

NOTE:  "FAIR" INDICATES FEW OR NO CLOUDS BELOW 12,000 FEET
WITH NO SIGNIFICANT WEATHER AND/OR OBSTRUCTIONS TO VISIBILITY.

WYZ001-172100-
YELLOWSTONE NATIONAL PARK

CITY           SKY/WX    TMP DP  RH WIND       PRES   REMARKS
LK YELLOWSTONE   N/A     22  17  81 W9G22     29.84F WCI  12
W YELLOWSTONE  NOT AVBL

$$
WYZ002>013-054>058-071-098>099-172100-
NORTHERN WYOMING

CITY           SKY/WX    TMP DP  RH WIND       PRES   REMARKS
JACKSON        PTSUNNY   32  19  58 S29       29.91F WCI  18
CODY           PTSUNNY   39  14  36 W14G23    29.75F WCI  31
GREYBULL       FAIR      31  23  72 E7        29.83F WCI  24
WORLAND        FAIR      32  20  61 CALM      29.82F
SHERIDAN       FAIR      32  23  69 SE9       29.82F WCI  24
BUFFALO        FAIR      33  23  66 SE5       29.81F WCI  29
GILLETTE       FAIR      33  21  61 S13       29.86F WCI  24
HULETT         CLOUDY    32  21  64 MISG      29.90F
NEWCASTLE      FAIR      32  19  59 E6        29.94F WCI  26

$$
WYZ014>020-022>026-101>103-172100-
CENTRAL WYOMING

CITY           SKY/WX    TMP DP  RH WIND       PRES   REMARKS
BIG PINEY      PTSUNNY   37  11  34 CALM      29.98F
PINEDALE       FAIR      32  18  55 E3        30.00F
DUBOIS           N/A    N/A N/A N/A MISG        N/A
LANDER         FAIR      43  12  28 NW6       29.82F
RIVERTON       FAIR      38  12  34 SW6       29.83F WCI  33
CASPER         FAIR      42  14  32 SW38G49   29.88F
DOUGLAS        FAIR      46  13  26 W32G44    29.88F

$$
WYZ021-027>030-104>119-172100-
SOUTHERN WYOMING

CITY           SKY/WX    TMP DP  RH WIND       PRES   REMARKS
EVANSTON       FAIR      39  15  37 SW17G28   30.06F WCI  30
FORT BRIDGER   FAIR      39  12  33 W24       30.10F WCI  28
ROCK SPRINGS   FAIR      42  10  27 W35G40    29.99F
DIXON          FAIR      34  17  48 SW14G21   30.11F WCI  25
RAWLINS        FAIR      36  12  37 SW26G37   30.00F WCI  24
SARATOGA       FAIR      37  10  32 SW21      30.02F WCI  27
LARAMIE        FAIR      38  13  35 W25G37    29.95F WCI  27
CHEYENNE       FAIR      45   8  22 W29G36    29.97F
TORRINGTON     FAIR      49  14  24 W26G36    29.93F
PINE BLUFFS    FAIR      46   9  21 MISG      29.97F

$$



USA.gov is the U.S. government's official web portal to all federal, state and local government web resources and services.